Time,TemperatureF,DewpointF,PressureIn,WindDirection,WindDirectionDegrees,WindSpeedMPH,WindSpeedGustMPH,Humidity,HourlyPrecipIn,Conditions,Clouds,dailyrainin,SoftwareType,DateUTC
2013-02-07 00:06:00,29.9,22.6,29.87,South,180,6.5,6.5,74,0.00,,,0.00,WUHU216HW,2013-02-07 07:06:00,
2013-02-07 00:16:00,29.7,22.7,29.88,SSE,158,3.1,5.6,75,0.00,,,0.00,WUHU216HW,2013-02-07 07:16:00,
2013-02-07 00:26:00,29.5,22.5,29.87,South,180,3.8,4.7,75,0.00,,,0.00,WUHU216HW,2013-02-07 07:26:00,
2013-02-07 00:36:00,29.3,22.4,29.87,SSE,158,3.4,6.5,75,0.00,,,0.00,WUHU216HW,2013-02-07 07:36:00,
2013-02-07 00:47:00,29.2,22.2,29.87,SSE,158,6.0,6.0,75,0.00,,,0.00,WUHU216HW,2013-02-07 07:47:00,
2013-02-07 00:57:00,29.0,22.3,29.87,SSW,203,4.5,6.3,76,0.00,,,0.00,WUHU216HW,2013-02-07 07:57:00,
2013-02-07 01:07:00,29.0,22.1,29.87,SSE,158,1.8,6.5,75,0.00,,,0.00,WUHU216HW,2013-02-07 08:07:00,
2013-02-07 01:19:00,29.2,22.2,29.87,SSW,203,1.8,4.0,75,0.00,,,0.00,WUHU216HW,2013-02-07 08:19:00,
2013-02-07 01:30:00,29.2,22.2,29.86,SE,135,3.1,5.1,75,0.00,,,0.00,WUHU216HW,2013-02-07 08:30:00,
2013-02-07 01:40:00,29.2,22.2,29.86,SSE,158,2.2,4.5,75,0.00,,,0.00,WUHU216HW,2013-02-07 08:40:00,
2013-02-07 01:50:00,29.2,22.2,29.86,SSE,158,2.7,3.8,75,0.00,,,0.00,WUHU216HW,2013-02-07 08:50:00,
2013-02-07 02:00:00,29.2,22.2,29.85,SSE,158,3.4,3.4,75,0.00,,,0.00,WUHU216HW,2013-02-07 09:00:00,
2013-02-07 02:11:00,29.2,22.2,29.85,SE,135,1.8,3.4,75,0.00,,,0.00,WUHU216HW,2013-02-07 09:11:00,
2013-02-07 02:21:00,29.2,22.5,29.86,SE,135,1.3,4.0,76,0.00,,,0.00,WUHU216HW,2013-02-07 09:21:00,
2013-02-07 02:31:00,29.2,22.5,29.86,SSE,158,2.5,5.4,76,0.00,,,0.00,WUHU216HW,2013-02-07 09:31:00,
2013-02-07 02:41:00,29.2,22.9,29.85,SE,135,3.4,4.7,77,0.00,,,0.00,WUHU216HW,2013-02-07 09:41:00,
2013-02-07 02:51:00,29.2,22.9,29.86,SSE,158,2.5,3.6,77,0.00,,,0.00,WUHU216HW,2013-02-07 09:51:00,
2013-02-07 03:01:00,29.3,23.0,29.85,SSE,158,1.3,4.7,77,0.00,,,0.00,WUHU216HW,2013-02-07 10:01:00,
2013-02-07 03:11:00,29.3,22.7,29.85,South,180,2.5,3.4,76,0.00,,,0.00,WUHU216HW,2013-02-07 10:11:00,
2013-02-07 03:22:00,29.5,22.9,29.85,ESE,113,2.0,3.8,76,0.00,,,0.00,WUHU216HW,2013-02-07 10:22:00,
2013-02-07 03:32:00,29.5,22.9,29.84,ESE,113,1.8,4.0,76,0.00,,,0.00,WUHU216HW,2013-02-07 10:32:00,
2013-02-07 03:42:00,29.3,22.7,29.84,SE,135,1.3,4.0,76,0.00,,,0.00,WUHU216HW,2013-02-07 10:42:00,
2013-02-07 03:52:00,29.3,22.7,29.83,SE,135,1.8,3.6,76,0.00,,,0.00,WUHU216HW,2013-02-07 10:52:00,
2013-02-07 04:02:00,29.3,22.7,29.83,South,180,2.7,3.1,76,0.00,,,0.00,WUHU216HW,2013-02-07 11:02:00,
2013-02-07 04:12:00,29.3,22.7,29.82,SE,135,2.9,3.4,76,0.00,,,0.00,WUHU216HW,2013-02-07 11:12:00,
2013-02-07 04:22:00,29.5,22.9,29.82,SE,135,2.9,3.6,76,0.00,,,0.00,WUHU216HW,2013-02-07 11:22:00,
2013-02-07 04:33:00,29.5,22.9,29.82,South,180,1.1,3.6,76,0.00,,,0.00,WUHU216HW,2013-02-07 11:33:00,
2013-02-07 04:44:00,29.7,23.1,29.82,SSW,203,1.3,2.5,76,0.00,,,0.00,WUHU216HW,2013-02-07 11:44:00,
2013-02-07 04:54:00,29.7,23.1,29.81,SSE,158,1.8,2.5,76,0.00,,,0.00,WUHU216HW,2013-02-07 11:54:00,
2013-02-07 05:05:00,29.9,23.2,29.81,SSE,158,2.5,2.9,76,0.00,,,0.00,WUHU216HW,2013-02-07 12:05:00,
2013-02-07 05:16:00,29.7,23.1,29.82,SSW,203,2.7,3.4,76,0.00,,,0.00,WUHU216HW,2013-02-07 12:16:00,
2013-02-07 05:26:00,29.9,23.2,29.81,SSW,203,2.7,3.4,76,0.00,,,0.00,WUHU216HW,2013-02-07 12:26:00,
2013-02-07 05:36:00,29.7,23.1,29.81,South,180,0.4,2.5,76,0.00,,,0.00,WUHU216HW,2013-02-07 12:36:00,
2013-02-07 05:46:00,29.9,23.2,29.81,SSE,158,0.0,1.1,76,0.00,,,0.00,WUHU216HW,2013-02-07 12:46:00,
2013-02-07 05:56:00,29.9,23.2,29.81,SSE,158,0.0,0.9,76,0.00,,,0.00,WUHU216HW,2013-02-07 12:56:00,
2013-02-07 06:07:00,29.7,22.7,29.80,NNE,23,0.0,0.4,75,0.00,,,0.00,WUHU216HW,2013-02-07 13:07:00,
2013-02-07 06:17:00,29.3,22.4,29.80,WNW,293,0.7,0.9,75,0.00,,,0.00,WUHU216HW,2013-02-07 13:17:00,
2013-02-07 06:28:00,29.2,22.5,29.80,WSW,248,0.4,0.7,76,0.00,,,0.00,WUHU216HW,2013-02-07 13:28:00,
2013-02-07 06:38:00,28.8,22.1,29.80,SSW,203,0.7,1.1,76,0.00,,,0.00,WUHU216HW,2013-02-07 13:38:00,
2013-02-07 06:48:00,28.4,22.2,29.80,South,180,0.0,1.1,77,0.00,,,0.00,WUHU216HW,2013-02-07 13:48:00,
2013-02-07 06:58:00,28.1,21.8,29.80,West,270,1.3,1.3,77,0.00,,,0.00,WUHU216HW,2013-02-07 13:58:00,
2013-02-07 07:08:00,27.7,21.4,29.81,South,180,0.0,2.7,77,0.00,,,0.00,WUHU216HW,2013-02-07 14:08:00,
2013-02-07 07:18:00,27.7,21.4,29.80,South,180,1.1,1.3,77,0.00,,,0.00,WUHU216HW,2013-02-07 14:18:00,
2013-02-07 07:29:00,27.4,21.3,29.80,SE,135,0.7,1.1,78,0.00,,,0.00,WUHU216HW,2013-02-07 14:29:00,
2013-02-07 07:40:00,27.2,21.2,29.80,SW,225,0.2,1.3,78,0.00,,,0.00,WUHU216HW,2013-02-07 14:40:00,
2013-02-07 07:50:00,27.0,21.0,29.81,WSW,248,0.2,0.7,78,0.00,,,0.00,WUHU216HW,2013-02-07 14:50:00,
2013-02-07 08:00:00,27.2,21.5,29.81,SSE,158,0.7,0.7,79,0.00,,,0.00,WUHU216HW,2013-02-07 15:00:00,
2013-02-07 08:10:00,27.0,21.3,29.81,SE,135,0.4,1.1,79,0.00,,,0.00,WUHU216HW,2013-02-07 15:10:00,
2013-02-07 08:20:00,27.0,21.3,29.81,ESE,113,0.4,1.8,79,0.00,,,0.00,WUHU216HW,2013-02-07 15:20:00,
2013-02-07 08:31:00,27.2,21.5,29.81,ESE,113,0.4,1.8,79,0.00,,,0.00,WUHU216HW,2013-02-07 15:31:00,
2013-02-07 08:42:00,27.4,21.7,29.81,ESE,113,0.4,1.1,79,0.00,,,0.00,WUHU216HW,2013-02-07 15:42:00,
2013-02-07 08:52:00,27.7,22.1,29.81,ESE,113,1.1,1.1,79,0.00,,,0.00,WUHU216HW,2013-02-07 15:52:00,
2013-02-07 09:02:00,28.1,22.4,29.81,ESE,113,1.3,2.0,79,0.00,,,0.00,WUHU216HW,2013-02-07 16:02:00,
2013-02-07 09:12:00,28.4,22.8,29.82,East,90,1.3,2.0,79,0.00,,,0.00,WUHU216HW,2013-02-07 16:12:00,
2013-02-07 09:22:00,29.0,23.3,29.81,North,0,1.1,1.8,79,0.00,,,0.00,WUHU216HW,2013-02-07 16:22:00,
2013-02-07 09:33:00,29.3,23.7,29.81,NE,45,0.4,2.2,79,0.00,,,0.00,WUHU216HW,2013-02-07 16:33:00,
2013-02-07 09:43:00,29.3,23.7,29.81,North,0,0.9,2.2,79,0.00,,,0.00,WUHU216HW,2013-02-07 16:43:00,
2013-02-07 09:53:00,29.5,23.8,29.81,NNE,23,1.3,2.2,79,0.00,,,0.00,WUHU216HW,2013-02-07 16:53:00,
2013-02-07 10:03:00,29.7,23.9,29.81,North,0,0.0,1.3,79,0.00,,,0.00,WUHU216HW,2013-02-07 17:03:00,
2013-02-07 10:14:00,30.1,24.0,29.80,North,0,0.0,2.5,78,0.00,,,0.00,WUHU216HW,2013-02-07 17:14:00,
2013-02-07 10:24:00,30.4,24.4,29.80,NNE,23,1.6,2.5,78,0.00,,,0.00,WUHU216HW,2013-02-07 17:24:00,
2013-02-07 10:35:00,31.0,24.9,29.80,NNE,23,1.8,2.5,78,0.00,,,0.00,WUHU216HW,2013-02-07 17:35:00,
2013-02-07 10:45:00,31.3,24.9,29.80,NE,45,0.4,2.2,77,0.00,,,0.00,WUHU216HW,2013-02-07 17:45:00,
2013-02-07 10:55:00,31.3,24.7,29.80,ENE,68,1.6,2.5,76,0.00,,,0.00,WUHU216HW,2013-02-07 17:55:00,
2013-02-07 11:05:00,32.0,25.4,29.80,NNE,23,1.1,2.0,76,0.00,,,0.00,WUHU216HW,2013-02-07 18:05:00,
2013-02-07 11:16:00,32.2,25.2,29.80,NNE,23,1.1,1.8,75,0.00,,,0.00,WUHU216HW,2013-02-07 18:16:00,
2013-02-07 11:26:00,32.9,25.5,29.81,NNE,23,1.1,1.3,74,0.00,,,0.00,WUHU216HW,2013-02-07 18:26:00,
2013-02-07 11:36:00,33.5,26.0,29.80,East,90,1.6,1.6,74,0.00,,,0.00,WUHU216HW,2013-02-07 18:36:00,
2013-02-07 11:46:00,34.0,25.8,29.80,NNW,338,1.3,2.2,72,0.00,,,0.00,WUHU216HW,2013-02-07 18:46:00,
2013-02-07 11:56:00,33.8,25.7,29.80,NE,45,0.2,1.1,72,0.00,,,0.00,WUHU216HW,2013-02-07 18:56:00,
2013-02-07 12:06:00,34.4,26.6,29.79,North,0,1.3,2.2,73,0.00,,,0.00,WUHU216HW,2013-02-07 19:06:00,
2013-02-07 12:16:00,34.9,26.7,29.79,North,0,1.1,2.0,72,0.00,,,0.00,WUHU216HW,2013-02-07 19:16:00,
2013-02-07 12:26:00,35.6,27.5,29.78,NE,45,0.0,0.9,72,0.00,,,0.00,WUHU216HW,2013-02-07 19:26:00,
2013-02-07 12:37:00,36.2,27.4,29.78,West,270,1.8,2.7,70,0.00,,,0.00,WUHU216HW,2013-02-07 19:37:00,
2013-02-07 12:47:00,36.2,26.7,29.78,North,0,2.7,3.4,68,0.00,,,0.00,WUHU216HW,2013-02-07 19:47:00,
2013-02-07 12:57:00,36.0,26.5,29.77,North,0,1.8,2.9,68,0.00,,,0.00,WUHU216HW,2013-02-07 19:57:00,
2013-02-07 13:08:00,36.0,26.8,29.77,North,0,1.3,3.4,69,0.00,,,0.00,WUHU216HW,2013-02-07 20:08:00,
2013-02-07 13:18:00,36.4,27.2,29.77,North,0,0.9,1.8,69,0.00,,,0.00,WUHU216HW,2013-02-07 20:18:00,
2013-02-07 13:28:00,36.7,27.2,29.77,NNE,23,0.0,1.8,68,0.00,,,0.00,WUHU216HW,2013-02-07 20:28:00,
2013-02-07 13:38:00,36.9,27.0,29.76,NE,45,0.4,2.2,67,0.00,,,0.00,WUHU216HW,2013-02-07 20:38:00,
2013-02-07 13:48:00,37.1,27.2,29.76,NE,45,1.8,3.1,67,0.00,,,0.00,WUHU216HW,2013-02-07 20:48:00,
2013-02-07 13:58:00,37.1,27.2,29.76,NNE,23,1.1,2.5,67,0.00,,,0.00,WUHU216HW,2013-02-07 20:58:00,
2013-02-07 14:08:00,37.1,26.7,29.76,North,0,3.4,3.4,66,0.00,,,0.00,WUHU216HW,2013-02-07 21:08:00,
2013-02-07 14:20:00,36.4,26.1,29.76,NNW,338,1.3,3.6,66,0.00,,,0.00,WUHU216HW,2013-02-07 21:20:00,
2013-02-07 14:30:00,36.4,26.1,29.76,North,0,2.0,2.0,66,0.00,,,0.00,WUHU216HW,2013-02-07 21:30:00,
2013-02-07 14:40:00,36.9,26.6,29.75,ENE,68,1.1,2.2,66,0.00,,,0.00,WUHU216HW,2013-02-07 21:40:00,
2013-02-07 14:50:00,37.1,26.4,29.75,NNW,338,0.4,2.5,65,0.00,,,0.00,WUHU216HW,2013-02-07 21:50:00,
2013-02-07 15:00:00,37.3,26.9,29.75,NNW,338,1.1,1.6,66,0.00,,,0.00,WUHU216HW,2013-02-07 22:00:00,
2013-02-07 15:10:00,37.3,26.6,29.75,North,0,0.7,1.8,65,0.00,,,0.00,WUHU216HW,2013-02-07 22:10:00,
2013-02-07 15:20:00,37.3,26.6,29.75,North,0,0.4,1.8,65,0.00,,,0.00,WUHU216HW,2013-02-07 22:20:00,
2013-02-07 15:31:00,37.1,26.4,29.74,NNE,23,2.7,2.7,65,0.00,,,0.00,WUHU216HW,2013-02-07 22:31:00,
2013-02-07 15:41:00,37.4,26.7,29.75,North,0,0.9,2.7,65,0.00,,,0.00,WUHU216HW,2013-02-07 22:41:00,
2013-02-07 15:51:00,37.4,26.4,29.75,North,0,0.7,2.5,64,0.00,,,0.00,WUHU216HW,2013-02-07 22:51:00,
2013-02-07 16:01:00,37.6,26.9,29.75,North,0,1.6,2.0,65,0.00,,,0.00,WUHU216HW,2013-02-07 23:01:00,
2013-02-07 16:11:00,37.1,26.0,29.75,NNW,338,1.3,2.9,64,0.00,,,0.00,WUHU216HW,2013-02-07 23:11:00,
2013-02-07 16:21:00,36.9,26.2,29.74,North,0,2.5,2.7,65,0.00,,,0.00,WUHU216HW,2013-02-07 23:21:00,
2013-02-07 16:31:00,36.9,25.8,29.74,North,0,1.1,4.0,64,0.00,,,0.00,WUHU216HW,2013-02-07 23:31:00,
2013-02-07 16:41:00,37.1,26.0,29.74,North,0,2.9,3.8,64,0.00,,,0.00,WUHU216HW,2013-02-07 23:41:00,
2013-02-07 16:53:00,36.7,25.7,29.74,North,0,1.8,5.1,64,0.00,,,0.00,WUHU216HW,2013-02-07 23:53:00,
2013-02-07 17:03:00,36.4,25.4,29.74,North,0,1.1,3.1,64,0.00,,,0.00,WUHU216HW,2013-02-08 00:03:00,
2013-02-07 17:13:00,36.4,25.4,29.74,North,0,1.1,1.8,64,0.00,,,0.00,WUHU216HW,2013-02-08 00:13:00,
2013-02-07 17:24:00,36.2,25.6,29.74,NE,45,0.4,3.4,65,0.00,,,0.00,WUHU216HW,2013-02-08 00:24:00,
2013-02-07 17:35:00,36.2,25.6,29.74,NNE,23,1.1,1.6,65,0.00,,,0.00,WUHU216HW,2013-02-08 00:35:00,
2013-02-07 17:45:00,36.2,25.6,29.74,NNE,23,0.4,1.6,65,0.00,,,0.00,WUHU216HW,2013-02-08 00:45:00,
2013-02-07 17:55:00,35.8,25.2,29.74,North,0,0.0,1.1,65,0.00,,,0.00,WUHU216HW,2013-02-08 00:55:00,
2013-02-07 18:05:00,35.8,25.2,29.75,NE,45,1.1,1.1,65,0.00,,,0.00,WUHU216HW,2013-02-08 01:05:00,
2013-02-07 18:15:00,35.6,25.0,29.75,East,90,1.6,1.8,65,0.00,,,0.00,WUHU216HW,2013-02-08 01:15:00,
2013-02-07 18:25:00,35.5,24.8,29.75,ENE,68,1.8,2.5,65,0.00,,,0.00,WUHU216HW,2013-02-08 01:25:00,
2013-02-07 18:35:00,35.5,24.8,29.75,East,90,2.0,2.2,65,0.00,,,0.00,WUHU216HW,2013-02-08 01:35:00,
2013-02-07 18:45:00,35.3,24.7,29.75,East,90,2.0,2.5,65,0.00,,,0.00,WUHU216HW,2013-02-08 01:45:00,
2013-02-07 18:55:00,35.1,24.5,29.75,ENE,68,2.2,2.5,65,0.00,,,0.00,WUHU216HW,2013-02-08 01:55:00,
2013-02-07 19:07:00,35.1,24.8,29.75,NE,45,3.1,3.4,66,0.00,,,0.00,WUHU216HW,2013-02-08 02:07:00,
2013-02-07 19:17:00,34.9,24.7,29.75,NE,45,2.5,3.6,66,0.00,,,0.00,WUHU216HW,2013-02-08 02:17:00,
2013-02-07 19:27:00,34.9,25.0,29.75,NE,45,1.1,2.9,67,0.00,,,0.00,WUHU216HW,2013-02-08 02:27:00,
2013-02-07 19:38:00,34.9,25.0,29.75,NW,315,0.9,1.3,67,0.00,,,0.00,WUHU216HW,2013-02-08 02:38:00,
2013-02-07 19:48:00,34.6,24.7,29.75,WNW,293,0.4,0.9,67,0.00,,,0.00,WUHU216HW,2013-02-08 02:48:00,
2013-02-07 19:58:00,34.4,24.5,29.75,NW,315,0.9,1.1,67,0.00,,,0.00,WUHU216HW,2013-02-08 02:58:00,
2013-02-07 20:08:00,34.2,24.7,29.75,NNW,338,0.0,1.1,68,0.00,,,0.00,WUHU216HW,2013-02-08 03:08:00,
2013-02-07 20:18:00,34.2,24.7,29.75,West,270,0.0,0.0,68,0.00,,,0.00,WUHU216HW,2013-02-08 03:18:00,
2013-02-07 20:29:00,34.2,25.0,29.75,NE,45,0.0,0.4,69,0.00,,,0.00,WUHU216HW,2013-02-08 03:29:00,
2013-02-07 20:39:00,34.0,24.8,29.75,ESE,113,0.9,1.3,69,0.00,,,0.00,WUHU216HW,2013-02-08 03:39:00,
2013-02-07 20:49:00,33.8,24.7,29.75,ESE,113,1.1,1.1,69,0.00,,,0.00,WUHU216HW,2013-02-08 03:49:00,
2013-02-07 20:59:00,33.8,24.7,29.75,NE,45,0.2,1.3,69,0.00,,,0.00,WUHU216HW,2013-02-08 03:59:00,
2013-02-07 21:09:00,34.0,25.2,29.75,NE,45,0.0,0.4,70,0.00,,,0.00,WUHU216HW,2013-02-08 04:09:00,
2013-02-07 21:19:00,34.0,25.2,29.75,NNW,338,0.4,0.4,70,0.00,,,0.00,WUHU216HW,2013-02-08 04:19:00,
2013-02-07 21:29:00,33.8,25.0,29.75,West,270,0.4,1.1,70,0.00,,,0.00,WUHU216HW,2013-02-08 04:29:00,
2013-02-07 21:39:00,33.7,24.8,29.76,West,270,0.4,0.4,70,0.00,,,0.00,WUHU216HW,2013-02-08 04:39:00,
2013-02-07 21:50:00,33.3,24.6,29.76,South,180,0.0,0.7,70,0.00,,,0.00,WUHU216HW,2013-02-08 04:50:00,
2013-02-07 22:00:00,32.9,24.2,29.76,SE,135,1.3,1.3,70,0.00,,,0.00,WUHU216HW,2013-02-08 05:00:00,
2013-02-07 22:10:00,32.8,24.0,29.76,West,270,0.0,1.1,70,0.00,,,0.00,WUHU216HW,2013-02-08 05:10:00,
2013-02-07 22:20:00,32.8,24.0,29.76,West,270,0.7,0.9,70,0.00,,,0.00,WUHU216HW,2013-02-08 05:20:00,
2013-02-07 22:30:00,32.8,24.4,29.76,WNW,293,0.0,1.1,71,0.00,,,0.00,WUHU216HW,2013-02-08 05:30:00,
2013-02-07 22:41:00,32.8,24.4,29.76,WSW,248,0.4,0.4,71,0.00,,,0.00,WUHU216HW,2013-02-08 05:41:00,
2013-02-07 22:52:00,32.4,24.0,29.77,WSW,248,0.0,1.3,71,0.00,,,0.00,WUHU216HW,2013-02-08 05:52:00,
2013-02-07 23:02:00,32.4,24.4,29.77,ESE,113,0.4,0.9,72,0.00,,,0.00,WUHU216HW,2013-02-08 06:02:00,
2013-02-07 23:12:00,32.2,24.2,29.77,ESE,113,0.0,0.7,72,0.00,,,0.00,WUHU216HW,2013-02-08 06:12:00,
2013-02-07 23:22:00,32.0,24.0,29.78,SSE,158,0.2,1.1,72,0.00,,,0.00,WUHU216HW,2013-02-08 06:22:00,
2013-02-07 23:32:00,32.0,24.0,29.78,SSE,158,0.0,0.0,72,0.00,,,0.00,WUHU216HW,2013-02-08 06:32:00,
2013-02-07 23:42:00,32.0,24.4,29.78,ESE,113,0.4,0.7,73,0.00,,,0.00,WUHU216HW,2013-02-08 06:42:00,
2013-02-07 23:53:00,32.0,24.4,29.78,ESE,113,0.0,0.7,73,0.00,,,0.00,WUHU216HW,2013-02-08 06:53:00,